STARLINK-31902, 59666

Orbit data source: Space-Track

STARLINK-31902, 59666 is a payload satellite owned by SpaceX/Seattle (US) in LEO that was launched on Mon, 06 May 2024 UTC via an FALCON 9 launch vehicle from the Air Force Eastern Test Range (AFETR). Payload-class satellites include a variety of spacecraft equipped with specific instruments for various scientific and technological missions. These include communications satellites like Starlink; space stations such as the ISS; scientific satellites like the Hubble; Earth observation satellites from companies like Planet Labs, Umbra, and HawkEye 360; GPS; miniature CubeSats for education and research; and military/defense satellites.

Loading next visibility...
Identifier
59666, 2024-084N
Orbit
LEO
Country
Flag of USUS
Related business
Manufacturer
SpaceX/Seattle
Mission
Operational Commercial Communications
Bus & Motor
STARLINK V2M, Unknown motor
Mass
730 kg wet, ~700 kg dry
Launch date (UTC)
2024-05-06 (2 years ago)
Launch vehicle
FALCON 9
Launch site
Air Force Eastern Test Range (AFETR)
Object type
Payload
Rocket body
Debris
Shape & HBR
Box + 2 Pan, 17.7 m
Radar Cross Section
33.884 m², Large (>1 m²)

Expand to show TLE details & history
Last TLE update: 1 day ago

TLE from 1 day ago
0 STARLINK-31902
1 59666U 24084N   25347.85976799  .00002560  00000-0  10248-3 0  9992
2 59666  42.9981 166.7700 0001419 270.5625  89.5064 15.27592064 91245
Epoch: 2025-12-13T20:38Z
TLE epoch observation values (Epoch: 2025-12-13T20:38:03.954Z)
Latitude
-0.00001°
Longitude
134.47252°
Altitude
482.78 km
Speed
7.626 km/s
True Right ascension
11h 07m 04s
True Declination
0° 00' 00"
Sunlit
Object was in daylight at epoch
Visualization orbit readout
Latitude
Unknown
Longitude
Unknown
Altitude
Unknown
Speed
Unknown
Apparent Right ascension
Unknown
Apparent Declination
Unknown
Sunlit
N/A
Visualization observer readout
Local Sidereal Time
19:47:09
Azimuth
Unknown
Elevation
Unknown
Doppler factor
Unknown
Orbital elements
Apogee altitude
485.932 km
Perigee altitude
483.985 km
Semi-major axis
6,863.095 km
Eccentricity
0.00014
Inclination
42.9981°
RAAN
166.77°
Arg. of periapsis
270.5625°
True anomaly
89.52266°
Mean anomaly
89.5064°
Eccentric anomaly
89.51453°
Mean motion
3.81736 °/min
Orbital period
94.31 mins
BSTAR
0.00010248
Loading maneuver chart data...
Computing Atmospheric mass density...
Loading historical data...
Loading historical data...
Loading historical data...
Loading historical data...
Loading historical data...
Loading historical data...
Loading historical data...

Documentation

Showing up to 5 results
|